TimeEDT,TemperatureF,Dew PointF,Humidity,Sea Level PressureIn,VisibilityMPH,Wind Direction,Wind SpeedMPH,Gust SpeedMPH,PrecipitationIn,Events,Conditions,WindDirDegrees,DateUTC
12:00 AM,62.6,59.0,88,29.84,25.0,SSE,5.8,-,N/A,,Mostly Cloudy,150,2013-09-21 04:00:00
1:00 AM,62.6,57.2,82,29.83,25.0,SSE,6.9,-,N/A,,Scattered Clouds,150,2013-09-21 05:00:00
2:00 AM,60.8,55.4,82,29.82,25.0,Calm,Calm,-,N/A,,Scattered Clouds,0,2013-09-21 06:00:00
3:00 AM,57.2,55.4,94,29.80,25.0,East,2.3,-,N/A,,Partly Cloudy,80,2013-09-21 07:00:00
4:00 AM,60.8,53.6,77,29.78,25.0,SE,3.5,-,N/A,,Scattered Clouds,140,2013-09-21 08:00:00
5:00 AM,60.8,55.4,82,29.76,25.0,SE,4.6,-,N/A,,Mostly Cloudy,140,2013-09-21 09:00:00
6:00 AM,59.0,55.4,88,29.75,25.0,NE,2.3,-,N/A,,Overcast,50,2013-09-21 10:00:00
7:00 AM,59.0,57.2,94,29.74,25.0,Variable,2.3,-,N/A,,Overcast,0,2013-09-21 11:00:00
8:00 AM,62.6,57.2,82,29.71,20.0,SE,4.6,-,N/A,,Overcast,140,2013-09-21 12:00:00
9:00 AM,62.6,57.2,82,29.70,25.0,SSE,5.8,-,N/A,,Overcast,150,2013-09-21 13:00:00
10:00 AM,64.4,59.0,83,29.69,25.0,SE,6.9,-,N/A,,Overcast,140,2013-09-21 14:00:00
10:24 AM,66.2,59.0,78,29.69,25.0,SSE,6.9,-,N/A,Rain,Light Rain Showers,150,2013-09-21 14:24:00
11:00 AM,64.4,59.0,83,29.69,25.0,SSE,3.5,-,N/A,Rain,Light Rain Showers,160,2013-09-21 15:00:00
12:00 PM,64.4,60.8,88,29.68,8.0,South,2.3,-,N/A,Rain,Light Rain Showers,180,2013-09-21 16:00:00
12:48 PM,62.6,60.8,94,29.67,4.0,West,2.3,-,N/A,Rain,Light Rain Showers,270,2013-09-21 16:48:00
1:00 PM,62.6,62.6,100,29.66,3.0,WNW,2.3,-,N/A,Rain,Light Rain Showers,290,2013-09-21 17:00:00
1:19 PM,62.6,60.8,94,29.66,1.5,SW,3.5,-,N/A,Rain,Light Rain Showers,220,2013-09-21 17:19:00
1:29 PM,62.6,60.8,94,29.65,1.5,SW,3.5,-,N/A,Rain,Light Rain Showers,220,2013-09-21 17:29:00
2:00 PM,62.6,62.6,100,29.63,2.0,SSW,2.3,-,N/A,Rain,Light Rain Showers,200,2013-09-21 18:00:00
3:00 PM,62.6,62.6,100,29.63,1.5,SSW,4.6,-,N/A,Rain,Light Rain Showers,200,2013-09-21 19:00:00
4:00 PM,62.6,62.6,100,29.62,1.8,South,4.6,-,N/A,Rain,Light Rain Showers,190,2013-09-21 20:00:00
5:00 PM,62.6,62.6,100,29.60,2.5,SSW,3.5,-,N/A,Rain,Light Rain Showers,210,2013-09-21 21:00:00
6:00 PM,62.6,62.6,100,29.60,3.0,WSW,5.8,-,N/A,Rain,Light Rain Showers,240,2013-09-21 22:00:00
7:00 PM,62.6,62.6,100,29.60,2.5,SW,9.2,-,N/A,Rain,Light Rain Showers,220,2013-09-21 23:00:00
8:00 PM,62.6,60.8,94,29.60,6.0,SW,5.8,-,N/A,Rain,Light Rain Showers,220,2013-09-22 00:00:00
9:00 PM,60.8,59.0,94,29.60,6.0,SW,5.8,-,N/A,Rain,Light Rain Showers,230,2013-09-22 01:00:00
10:00 PM,59.0,59.0,100,29.58,10.0,WNW,8.1,-,N/A,Rain,Light Rain Showers,290,2013-09-22 02:00:00
11:00 PM,59.0,59.0,100,29.58,10.0,West,3.5,-,N/A,,Overcast,270,2013-09-22 03:00:00